Regional Weather Roundup
Issued by NWS Huntsville, AL

Home | Current Version | Previous Version | Text Only | Print | Product List | Glossary On
Versions: 1 2 3 4 5 6 7 8 9 10 11 12 13 14 15 16 17 18 19 20 21 22 23 24 25 26 27 28 29 30 31 32 33 34 35 36 37 38 39 40 41 42 43 44 45 46 47 48 49 50
000
ASUS44 KHUN 181824
RWRHUN

WEATHER ROUNDUP FOR THE TENNESSEE VALLEY
NATIONAL WEATHER SERVICE HUNTSVILLE AL
100 PM CDT FRI APR 18 2014

ALZ001>004-181900-
NORTHWEST ALABAMA

CITY           SKY/WX    TMP DP  RH WIND       PRES   REMARKS
SHOALS AIRPORT CLOUDY    62  45  53 E6        30.26F
6HR MIN TEMP:  59; 6HR MAX TEMP:  62;

SHOALS TVA RES   N/A     59 N/A N/A MISG        N/A
$$

ALZ005>007-016-181900-
NORTH CENTRAL ALABAMA

CITY           SKY/WX    TMP DP  RH WIND       PRES   REMARKS
DECATUR AP     CLOUDY    62  44  51 E8        30.26F
6HR MIN TEMP:  56; 6HR MAX TEMP:  62; 6HR PCP:  0.01;

HUNTSVILLE AP  CLOUDY    62  44  51 E8        30.25F
6HR MIN TEMP:  58; 6HR MAX TEMP:  63; 6HR PCP: TRACE;

HUN NWS/UAH      N/A     63  41  44 SE5         N/A
MERIDIANVILLE  CLOUDY    63  36  36 CALM      30.25F
VINEMONT AP    FAIR      57  46  66 NE6       30.25F
$$

ALZ008>010-181900-
NORTHEAST ALABAMA

CITY           SKY/WX    TMP DP  RH WIND       PRES   REMARKS
ALBERTVILLE    CLOUDY    59  50  72 E8        30.21F
CROSSVILLE       N/A     57 N/A N/A CALM        N/A
FORT PAYNE     CLOUDY    59  37  44 E9        30.23F
SCOTTSBORO AP  CLOUDY    63  43  48 NE9       30.25F
SCOTTSBORO HCN   N/A     61 N/A N/A MISG        N/A
VALLEY HEAD      N/A     59 N/A N/A MISG        N/A
$$

TNZ076-096-097-181900-
SOUTHEASTERN MIDDLE TENNESSEE

CITY           SKY/WX    TMP DP  RH WIND       PRES   REMARKS
FAYETTEVILLE   FAIR      61  41  47 E6        30.26F
TULLAHOMA      SUNNY     64  39  39 E7        30.26F
WINCHESTER     SUNNY     63  41  45 S6        30.26F
$$

...SURROUNDING SITES...

CITY           SKY/WX    TMP DP  RH WIND       PRES   REMARKS
ATLANTA        LGT RAIN  54  49  83 NE15      30.23F
ANNISTON       CLOUDY    57  49  74 NE8       30.21F
BIRMINGHAM     CLOUDY    55  50  82 NE6       30.23F
CHATTANOOGA    CLOUDY    61  39  44 NE8       30.28F
CORINTH        CLOUDY    66  46  48 E6        30.23F
DALTON         CLOUDY    59  43  55 CALM      30.26F
GADSDEN        NOT AVBL
GOLDEN TRNGL   CLOUDY    61  55  82 NE9       30.24F
HALEYVILLE     FAIR      54  48  80 E8        30.26F
JACKSON TN     PTSUNNY   67  48  50 NE3       30.25F
LEWISBURG      FAIR      63  42  46 N3        30.27F
MEMPHIS        CLOUDY    68  50  52 E6        30.22F
MURFREESBORO   FAIR      66  42  41 CALM      30.27F
NASHVILLE      CLOUDY    67  43  41 CALM      30.28F
OXFORD MS      PTSUNNY   66  50  55 E7        30.23S
ROME           CLOUDY    58  47  66 N6        30.25F
SAVANNAH       CLOUDY    67  47  48 SE3       30.25
TUPELO         CLOUDY    63  49  60 E7        30.24F
TUSCALOOSA     LGT RAIN  57  55  94 NE6       30.20F
$$

...GULF COAST WEATHER...

CITY           SKY/WX    TMP DP  RH WIND       PRES   REMARKS
GULFPORT       CLOUDY    70  59  68 N16G23    30.06S
PASCAGOULA     CLOUDY    65  58  78 N16G26    30.04F
MOBILE         CLOUDY    62  58  86 NE20G26   30.06F
GULF SHORES    CLOUDY    62  57  84 N14G23    29.99F
PENSACOLA      CLOUDY    62  58  86 NE23G36   29.98F
DESTIN         HVY RAIN  60  56  86 N13G22    30.01R FOG
PANAMA CITY    CLOUDY    63  63 100 VRB7G16   29.95S
APPALACHICOLA  LGT RAIN  67  63  87 E13       29.95F
$$




USA.gov is the U.S. government's official web portal to all federal, state and local government web resources and services.